TimeMDT,TemperatureF,Dew PointF,Humidity,Sea Level PressureIn,VisibilityMPH,Wind Direction,Wind SpeedMPH,Gust SpeedMPH,PrecipitationIn,Events,Conditions,WindDirDegrees,DateUTC
12:53 AM,53.1,50.0,89,29.76,10.0,SSE,4.6,-,0.05,,Overcast,150,2013-05-16 06:53:00
1:53 AM,53.1,48.9,86,29.72,10.0,SE,4.6,-,N/A,,Clear,140,2013-05-16 07:53:00
2:53 AM,48.0,45.0,89,29.73,10.0,WNW,3.5,-,N/A,,Clear,290,2013-05-16 08:53:00
3:53 AM,51.1,45.0,80,29.70,10.0,SW,9.2,-,N/A,,Clear,230,2013-05-16 09:53:00
4:53 AM,48.9,45.0,86,29.75,10.0,West,8.1,-,N/A,,Partly Cloudy,270,2013-05-16 10:53:00
5:53 AM,50.0,46.0,86,29.74,10.0,SW,8.1,-,N/A,,Scattered Clouds,220,2013-05-16 11:53:00
6:53 AM,52.0,46.9,83,29.76,10.0,SW,4.6,-,N/A,,Clear,220,2013-05-16 12:53:00
7:53 AM,55.9,48.0,75,29.77,10.0,SW,8.1,-,N/A,,Clear,220,2013-05-16 13:53:00
8:53 AM,61.0,46.9,60,29.74,10.0,SW,10.4,-,N/A,,Clear,220,2013-05-16 14:53:00
9:53 AM,64.9,46.9,52,29.73,10.0,WSW,10.4,-,N/A,,Clear,240,2013-05-16 15:53:00
10:53 AM,70.0,44.1,39,29.70,10.0,WSW,11.5,17.3,N/A,,Clear,240,2013-05-16 16:53:00
11:53 AM,73.0,39.9,30,29.70,10.0,West,16.1,26.5,N/A,,Clear,270,2013-05-16 17:53:00
12:53 PM,73.9,37.0,26,29.68,10.0,WNW,24.2,29.9,N/A,,Mostly Cloudy,290,2013-05-16 18:53:00
1:16 PM,69.8,35.6,28,29.85,10.0,West,9.2,25.3,N/A,Thunderstorm,Overcast,270,2013-05-16 19:16:00
1:31 PM,75.2,37.4,25,29.83,10.0,West,13.8,20.7,N/A,,Scattered Clouds,280,2013-05-16 19:31:00
1:53 PM,75.0,35.1,23,29.66,10.0,West,17.3,24.2,N/A,,Clear,270,2013-05-16 19:53:00
2:53 PM,77.0,32.0,19,29.65,10.0,West,18.4,25.3,N/A,,Clear,260,2013-05-16 20:53:00
3:53 PM,71.1,37.0,29,29.66,10.0,WNW,29.9,42.6,N/A,,Mostly Cloudy,300,2013-05-16 21:53:00
4:53 PM,75.0,36.0,24,29.66,10.0,WNW,15.0,26.5,N/A,,Clear,290,2013-05-16 22:53:00
5:53 PM,73.0,34.0,24,29.65,10.0,NW,15.0,21.9,N/A,,Clear,310,2013-05-16 23:53:00
6:53 PM,69.1,33.1,26,29.66,10.0,West,5.8,-,N/A,,Scattered Clouds,280,2013-05-17 00:53:00
7:53 PM,60.8,39.2,45,29.84,10.0,South,3.5,-,N/A,,Clear,180,2013-05-17 01:53:00
8:53 PM,57.9,42.1,56,29.71,10.0,NNW,5.8,-,N/A,,Mostly Cloudy,330,2013-05-17 02:53:00
9:53 PM,60.1,43.0,53,29.71,10.0,NNE,9.2,-,0.00,,Overcast,20,2013-05-17 03:53:00
10:53 PM,57.9,44.1,60,29.73,10.0,North,9.2,-,N/A,,Overcast,360,2013-05-17 04:53:00
11:53 PM,59.0,44.1,58,29.70,10.0,East,6.9,-,N/A,,Overcast,90,2013-05-17 05:53:00